Regional Weather Roundup
Issued by NWS

Home | Current Version | Previous Version | Text Only | Print | Product List | Glossary Off
Versions: 1 2 3 4 5 6 7 8 9 10 11 12 13 14 15 16 17 18 19 20 21 22 23 24 25 26 27

000
ASUS45 KBOI 160710
RWRID
WEATHER ROUNDUP FOR IDAHO
NATIONAL WEATHER SERVICE BOISE ID
100 AM MDT WED APR 16 2014

NOTE: "FAIR" INDICATES FEW OR NO CLOUDS BELOW 12000 FEET
WITH NO SIGNIFICANT WEATHER AND/OR OBSTRUCTIONS TO VISIBILITY

IDZ012-014-160800-
SOUTHWEST IDAHO


CITY           SKY/WX    TMP DP  RH WIND       PRES   REMARKS
BOISE          PTCLDY    41  17  38 W7        30.01R
CALDWELL       PTCLDY    41  19  42 NW9       30.05R
MOUNTAIN HOME  PTCLDY    38  15  39 W5        30.02R WCI  35
$$

IDZ016-017-160800-
SOUTHCENTRAL IDAHO


CITY           SKY/WX    TMP DP  RH WIND       PRES   REMARKS
BURLEY         PTCLDY    35  22  58 SW7       29.97R WCI  29
JEROME         PTCLDY    36  21  54 W9        29.98S WCI  29
TWIN FALLS     PTCLDY    43  18  36 SW14      29.99R
$$

IDZ019>023-160800-
SOUTHEAST IDAHO


CITY           SKY/WX    TMP DP  RH WIND       PRES   REMARKS
IDAHO FALLS    PTCLDY    33  14  45 NW5       29.98R WCI  29
POCATELLO      CLEAR     36  18  48 N7        29.98R WCI  30
REXBURG        CLEAR     37  15  40 N9        29.97R WCI  30
$$

IDZ006-010-011-018-031-032-160800-
CENTRAL IDAHO MOUNTAINS


CITY           SKY/WX    TMP DP  RH WIND       PRES   REMARKS
MCCALL         PTCLDY    29  17  61 NE3       30.02R
HAILEY         CLEAR     34  14  44 SE6       29.98R WCI  29
STANLEY          N/A     23  10  57 S3        30.01R
SALMON         PTCLDY    34  19  55 NE5       30.00R WCI  30
CHALLIS        CLEAR     35  32  88 N6        30.00R WCI  30
$$

IDZ002-004-006-007-026-160800-
NORTHERN IDAHO


CITY           SKY/WX    TMP DP  RH WIND       PRES   REMARKS
LEWISTON       MOCLDY    50  23  34 CALM      30.02R
LOWELL           N/A     42  40  92 CALM      30.07R
COEUR D`ALENE  CLOUDY    37  34  87 CALM      29.96S
MULLAN PASS    MOCLDY    27  25  92 S5        29.92S WCI  22
$$



USA.gov is the U.S. government's official web portal to all federal, state and local government web resources and services.